Kezdőlap
METAR-TAF:

METAR-TAF

Repülőterek :

Muscatine, Iowa, Amerikai Egyesült Államok

földrajzi szélesség: 41-22N, földrajzi hosszúság: 091-09W, magasság: 167 m

Jelenlegi meteorológiai megfigyelések

A jelentés 24 perccel ezelõtt készült, 13:15 UTC
Szélcsend
Hőmérséklet -1°C
Páratartalom 93%
Légköri nyomás 1027 hPa
Látótávolság: 16.1 km
Derült ég

METAR: KMUT 041315Z AUTO 00000KT 10SM CLR M01/M02 A3032 RMK AO2

Idő: 07:39 (13:39 UTC)


TAF: hiányzik

Meteorológiai megfigyelések és előrejelzések több, mint 4000 repülőtéren (METAR és TAF jelentéseket).

A térképen piros és sárga pontok jelzik az elérhető meteorológiai állomásokat.

Mozgassa az egeret a pont fölött, hogy megjelenjen az állomás neve.

Azután kattintson az időjárási megfigyelések és előrejelzések megtekintéséhez.

A térkép megváltoztatása: kattintson a fekete keresztel jelölt zöld gombra ráközelítéshez, a vonallal jelölt zöld gombra távolításhoz, vagy a zöld nyilakra a szomszédos térképek eléréséhez.


METAR-TAF: